COSMOS 514

Satellite information

Favourite Embed

Satellite Type and Status

PAYLOADIN ORBIT

Key statistics

Satellite COSMOS 514 at a glance.

Uptime

19256

Days in orbit

Revolutions

≈ 13.8

Per day

Orbit

LEO

Low Earth Orbit

Inclination

83.0

Latest

Satellite identification and parameters

Extended collection of information and parameters for COSMOS 514.

Object identification

Identified? True

Debris? False

Object name: COSMOS 514

International designator: 1972-062A

Object number (NORAD): 6148

Object ID (CCSDS): 6148

Country: COMMONWEALTH OF INDEPENDENT STATES (CIS)

Current information (Y/N): Y

RCS size: LARGE

Orbital parameters

Period: 104.196 minutes

Inclination: 82.9682 deg

SMA: 7334.916 km

Apoapsis: 963.601 km

Periapsis: 949.961 km

RAAN: 240.3819 deg

Eccentricy: 0.0009298

Argument of periapsis: 212.127 deg

Mean anomaly: 258.619 deg

Mean motion: 13.82006352 rev/day

Mean motion (dot): 0.0000008 rev/day2

B* drag term: 0.000060353 1/REarth

Two-line elements (TLE)

Creation date: May 6, 2025, 3:54 a.m.

Reference frame: TEME

Reference center: EARTH

Epoch: May 5, 2025, 7:45 p.m. UTC

TLE line 0: 0 COSMOS 514

TLE line 1: 1 06148U 72062A 25125.82353888 .00000080 00000-0 60353-4 0 9995

TLE line 2: 2 06148 82.9682 240.3819 0009298 212.1270 258.6190 13.82006352657274

Live tracking on map

Real-time ground track for satellite COSMOS 514.

In-orbit conjunctions

A list of the most updated potential collisions computed for object COSMOS 514.

Target Orbit TCA Probability of collision Miss distance Type
CZ-6A DEB SSO 2024-11-20 12:25:22 0.0001131639 175.0 (m) DEBRIS

Associated space launch

The Zaliv-GVM satellites were mass models of the Zaliv navigation satellites, which were launched as payload substitutes on some Kosmos-3M evaluation launches.

COSMOS 514 was lifted into orbit during the mission ‘Kosmos-3M | Zaliv-GVM 3’, on board a Kosmos-3M space rocket.

The launch took place on Aug. 16, 1972, 1:40 p.m. from 132/2.

For more information about the launch, click the button.

Launch to space Kosmos-3M | Zaliv-GVM 3
Kosmos-3M | Zaliv-GVM 3

Agency: N/A

Status: Launch Successful

Launch date: Aug. 16, 1972, 1:40 p.m. UTC

Rocket: Kosmos-3M

Launch pad: 132/2

Location: Plesetsk Cosmodrome, Russian Federation

...

Latest news about this satellite

There are no fresh news available about this satellite. Check back as we update our databases every day.


Newsletter sign-up

Weekly statistics, charts and insights to help you stay on top of the space industry.